Beaufort MCAS, SC

4:41 PM EST on December 16, 2017 (GMT -0500)
Beaufort Marine Corps Air Station

Weather History for KNBC - October, 2012

Change the Weather History Date:

Friday, October 26, 2012

  Actual Average Record
Temperature  
Mean Temperature 72 °F -  
Max Temperature 80 °F 74 °F 88 °F (1939)
Min Temperature 66 °F 56 °F 35 °F (1962)
Cooling Degree Days 8    
Growing Degree Days 22 (Base 50)    
Moisture  
Dew Point 62 °F    
Average Humidity 75    
Maximum Humidity 93    
Minimum Humidity 54    
Precipitation  
Precipitation 0.00 in - - ()
Sea Level Pressure  
Sea Level Pressure 29.90 in    
Wind  
Wind Speed 11 mph (NE)    
Max Wind Speed 20 mph    
Max Gust Speed 25 mph    
Visibility 10 miles    
Events      
Averages and records for this station are not official NWS values.
T = Trace of Precipitation, MM = Missing Value Source: NWS Daily Summary

Daily Weather History Graph

Daily Weather History Graph

Search for Another Location

Airport or City:

Trip Planner

Search our weather history database for the weather conditions in past years. The results will help you decide how hot, cold, wet, or windy it might be!

Date:

Astronomy

Oct. 26, 2012 Rise Set
Actual Time 7:35 AM EDT 6:37 PM EDT
Civil Twilight 7:10 AM EDT 7:02 PM EDT
Nautical Twilight 6:41 AM EDT 7:31 PM EDT
Astronomical Twilight 6:12 AM EDT 8:00 PM EDT
Moon 4:45 PM EDT (10/26) 4:38 AM EDT (10/26)
Length of Visible Light 11h 52m
Length of Day
11h 01m
Waxing Gibbous, 91% of the Moon is Illuminated
Oct 26
Waxing Gibbous
Oct 29
Full
Nov 6
Last Quarter
Nov 13
New
Nov 20
First Quarter

Hourly Weather History & Observations

Time (EDT) Temp. Dew Point Humidity Pressure Visibility Wind Dir Wind Speed Gust Speed Precip Events Conditions
12:56 AM 69.1 °F 66.0 °F 90% 29.99 in 10.0 mi ENE 9.2 mph - N/A   Clear
1:56 AM 69.1 °F 66.0 °F 90% 29.98 in 10.0 mi ENE 4.6 mph - N/A   Clear
2:56 AM 66.9 °F 64.9 °F 93% 29.97 in 10.0 mi NE 6.9 mph - N/A   Clear
3:56 AM 68.0 °F 64.9 °F 90% 29.95 in 10.0 mi NE 8.1 mph - N/A   Clear
4:56 AM 68.0 °F 64.9 °F 90% 29.95 in 10.0 mi NE 8.1 mph - N/A   Clear
5:56 AM 66.9 °F 64.9 °F 93% 29.95 in 10.0 mi NE 9.2 mph - N/A   Clear
6:56 AM 66.9 °F 64.0 °F 90% 29.95 in 10.0 mi NE 8.1 mph - N/A   Scattered Clouds
7:56 AM 66.0 °F 63.0 °F 90% 29.95 in 10.0 mi NE 10.4 mph - N/A   Scattered Clouds
8:56 AM 69.1 °F 64.0 °F 84% 29.96 in 10.0 mi NE 11.5 mph 20.7 mph N/A   Mostly Cloudy
9:56 AM 71.1 °F 64.0 °F 78% 29.97 in 10.0 mi NE 15.0 mph 19.6 mph N/A   Mostly Cloudy
10:56 AM 73.0 °F 63.0 °F 71% 29.96 in 10.0 mi NE 11.5 mph - N/A   Overcast
11:56 AM 75.9 °F 63.0 °F 64% 29.94 in 10.0 mi NNE 16.1 mph 21.9 mph N/A   Overcast
12:56 PM 77.0 °F 61.0 °F 58% 29.92 in 10.0 mi NNE 19.6 mph 25.3 mph N/A   Overcast
1:56 PM 79.0 °F 61.0 °F 54% 29.88 in 10.0 mi NNE 9.2 mph 23.0 mph N/A   Overcast
2:56 PM 78.1 °F 60.1 °F 54% 29.86 in 10.0 mi NE 18.4 mph 25.3 mph N/A   Overcast
3:56 PM 78.1 °F 61.0 °F 56% 29.85 in 10.0 mi NNE 12.7 mph - N/A   Overcast
4:56 PM 75.9 °F 60.1 °F 58% 29.83 in 10.0 mi NNE 12.7 mph - N/A   Clear
5:56 PM 73.9 °F 61.0 °F 64% 29.83 in 10.0 mi NNE 11.5 mph - N/A   Clear
6:56 PM 72.0 °F 60.1 °F 66% 29.83 in 10.0 mi NNE 12.7 mph 20.7 mph N/A   Clear
7:56 PM 71.1 °F 59.0 °F 66% 29.83 in 10.0 mi NNE 16.1 mph 23.0 mph N/A   Clear
8:56 PM 70.0 °F 59.0 °F 68% 29.83 in 10.0 mi NNE 15.0 mph - N/A   Clear
9:56 PM 69.1 °F 60.1 °F 73% 29.82 in 10.0 mi NNE 15.0 mph 21.9 mph N/A   Clear
10:56 PM 68.0 °F 61.0 °F 78% 29.81 in 10.0 mi NNE 18.4 mph 24.2 mph N/A   Partly Cloudy
11:56 PM 68.0 °F 61.0 °F 78% 29.78 in 10.0 mi NNE 15.0 mph 23.0 mph N/A   Partly Cloudy